This demonstration page uses our WeatherBlox Daily Observations layout. Learn more.

40.92945, -100.16068

Hourly Observations for May 3, 2018

Temp ( °F °C ) Dew Point ( °F °C ) Humidity (%) Winds ( mph kmh ) Pressure ( in mb ) Visibility ( mi km ) Precip ( " mm )
12:15 am 00:15 Cloudy 55 12.7 45 7 69 69 E 6 9 29.88 1012 10 16.0934 0 0
12:35 am 00:35 Cloudy 55 12.5 44 6.6 68 68 ENE 10 17 29.85 1011 10 16.0934 0 0
12:55 am 00:55 Partly Cloudy 53 11.5 44 6.4 71 71 E 5 7 29.91 1013 10 16.0934 0 0
1:15 am 01:15 Mostly Cloudy 52 11.2 43 6.2 72 72 ENE 12 19 29.85 1011 10 16.0934 0 0
1:35 am 01:35 Mostly Cloudy 51 10.8 43 6.2 73 73 E 6 9 29.88 1012 10 16.0934 0 0
1:55 am 01:55 Cloudy 52 11.3 44 6.4 72 72 E 5 7 29.91 1013 10 16.0934 0 0
2:15 am 02:15 Cloudy 52 11.3 44 6.6 73 73 Calm 29.88 1012 10 16.0934 0 0
2:35 am 02:35 Cloudy 52 11.1 44 6.7 75 75 N 3 6 29.88 1012 10 16.0934 0 0
2:55 am 02:55 Cloudy 53 11.5 44 6.7 73 73 NNW 8 13 29.88 1012 10 16.0934 0 0
3:15 am 03:15 Cloudy 53 11.5 45 7 74 74 NNE 7 11 29.88 1012 10 16.0934 0 0
3:35 am 03:35 Cloudy 53 11.9 45 7.2 73 73 NNE 8 13 29.88 1012 10 16.0934 0 0
3:55 am 03:55 Cloudy 53 11.8 45 7.4 75 75 NE 7 11 29.88 1012 10 16.0934 0 0
4:15 am 04:15 Cloudy 53 11.8 45 7.4 75 75 NE 6 9 29.88 1012 10 16.0934 0 0
4:35 am 04:35 Cloudy 53 11.7 46 7.5 76 76 ENE 5 7 29.91 1013 10 16.0934 0 0
4:55 am 04:55 Cloudy 53 11.5 46 7.9 79 79 NNE 7 11 29.88 1012 10 16.0934 0 0
5:15 am 05:15 Cloudy 53 11.7 46 7.9 78 78 NNW 8 13 29.88 1012 10 16.0934 0 0
5:35 am 05:35 Cloudy 53 11.7 46 8 78 78 N 8 13 29.88 1012 10 16.0934 0 0
5:55 am 05:55 Cloudy 53 11.7 47 8.5 81 81 NNE 10 17 29.83 1010 7 11.26538 0 0
6:15 am 06:15 Cloudy 53 11.5 46 8 79 79 N 8 13 29.85 1011 10 16.0934 0 0
6:35 am 06:35 Cloudy 53 11.5 47 8.2 80 80 NNE 10 17 29.85 1011 10 16.0934 0 0
6:55 am 06:55 Cloudy 53 11.5 47 8.4 81 81 ENE 9 15 29.88 1012 7 11.26538 0 0
7:15 am 07:15 Mostly Cloudy 52 11.1 47 8.5 84 84 ENE 23 37 29.77 1008 7 11.26538 0 0
7:35 am 07:35 Partly Cloudy 52 11 47 8.5 85 85 ENE 21 33 29.74 1007 7 11.26538 0 0
7:55 am 07:55 Mostly Cloudy with Haze 52 10.9 47 8.5 85 85 ENE 18 30 29.74 1007 5 8.0467 0 0
8:15 am 08:15 Cloudy with Mist and Fog 52 11.3 48 9.1 86 86 ENE 16 26 29.74 1007 5 8.0467 0 0
8:35 am 08:35 Cloudy with Mist and Fog 53 11.6 49 9.3 86 86 ENE 17 28 29.74 1007 5 8.0467 0 0
8:55 am 08:55 Cloudy with Mist and Fog 53 11.9 49 9.6 86 86 ENE 17 28 29.74 1007 5 8.0467 0 0
9:15 am 09:15 Cloudy with Thunderstorms 54 12 49 9.6 85 85 NE 14 22 29.77 1008 5 8.0467 0 0
9:35 am 09:35 Cloudy 54 12.3 50 10 86 86 NE 12 19 29.77 1008 7 11.26538 0 0
9:55 am 09:55 Cloudy 55 12.7 50 10 84 84 NE 10 17 29.77 1008 7 11.26538 0 0
10:15 am 10:15 Cloudy 55 12.7 50 9.8 83 83 NNE 10 17 29.77 1008 7 11.26538 0 0
10:35 am 10:35 Cloudy 55 12.5 49 9.5 82 82 NNE 9 15 29.77 1008 7 11.26538 0 0
10:55 am 10:55 Cloudy 55 12.5 49 9.3 81 81 NNW 7 11 29.8 1009 7 11.26538 0 0
11:15 am 11:15 Cloudy with Heavy Rain 54 12.4 50 9.9 85 85 NNW 8 13 29.8 1009 2.5 4.02335 0.08 2.032
11:35 am 11:35 Mostly Cloudy with Mist and Fog 57 14 53 11.4 84 84 NNE 13 20 29.8 1009 5 8.0467 0.08 2.032
11:55 am 11:55 Cloudy 57 13.7 51 10.8 83 83 N 16 26 29.8 1009 10 16.0934 0.08 2.032
12:15 pm 12:15 Cloudy 55 13 50 9.9 82 82 N 16 26 29.8 1009 10 16.0934 0 0
12:35 pm 12:35 Cloudy 55 13 49 9.6 80 80 N 13 20 29.8 1009 10 16.0934 0 0
12:55 pm 12:55 Cloudy 55 12.9 49 9.4 79 79 N 9 15 29.83 1010 10 16.0934 0 0
1:15 pm 13:15 Cloudy 55 12.8 49 9.2 79 79 NE 18 30 29.8 1009 7 11.26538 0 0
1:35 pm 13:35 Cloudy 55 13 48 8.8 76 76 NNE 17 28 29.8 1009 10 16.0934 0 0
1:55 pm 13:55 Cloudy 56 13.3 47 8.3 72 72 NNE 20 31 29.8 1009 10 16.0934 0.01 0.254
2:15 pm 14:15 Cloudy 56 13.6 48 8.8 73 73 NNE 15 24 29.8 1009 10 16.0934 0 0
2:35 pm 14:35 Cloudy 57 13.7 47 8.4 71 71 NNE 22 35 29.8 1009 10 16.0934 0 0
2:55 pm 14:55 Cloudy 57 14 47 8.6 70 70 NE 24 39 29.8 1009 10 16.0934 0 0
3:15 pm 15:15 Cloudy 58 14.7 49 9.3 70 70 NNE 23 37 29.77 1008 10 16.0934 0 0
3:35 pm 15:35 Cloudy 58 14.2 48 9.1 72 72 NNE 22 35 29.83 1010 10 16.0934 0 0
3:55 pm 15:55 Cloudy 57 13.9 48 9 73 73 NNE 22 35 29.83 1010 10 16.0934 0 0
4:15 pm 16:15 Cloudy 57 14 48 9 72 72 NNE 17 28 29.83 1010 10 16.0934 0 0
4:35 pm 16:35 Cloudy 57 14.1 48 9 72 72 NNE 21 33 29.83 1010 10 16.0934 0 0
4:55 pm 16:55 Cloudy 57 13.8 48 8.7 72 72 NNE 14 22 29.85 1011 10 16.0934 0 0
5:15 pm 17:15 Cloudy 57 14 48 8.7 71 71 N 17 28 29.85 1011 10 16.0934 0 0
5:35 pm 17:35 Cloudy 56 13.5 47 8.3 71 71 N 15 24 29.88 1012 10 16.0934 0 0
5:55 pm 17:55 Cloudy 58 14.7 47 8.6 67 67 N 16 26 29.88 1012 10 16.0934 0 0
6:15 pm 18:15 Cloudy 58 14.4 47 8.1 66 66 N 16 26 29.88 1012 10 16.0934 0 0
6:35 pm 18:35 Mostly Cloudy 57 14 47 8.2 68 68 N 15 24 29.88 1012 10 16.0934 0 0
6:55 pm 18:55 Cloudy 57 14 47 8.2 68 68 N 16 26 29.88 1012 10 16.0934 0 0
7:15 pm 19:15 Mostly Cloudy 58 14.2 46 7.9 66 66 N 15 24 29.88 1012 10 16.0934 0 0
7:35 pm 19:35 Partly Cloudy 56 13.5 46 7.7 68 68 N 14 22 29.88 1012 10 16.0934 0 0
7:55 pm 19:55 Mostly Cloudy 55 13 46 8 72 72 N 12 19 29.91 1013 10 16.0934 0 0
8:15 pm 20:15 Cloudy 55 13 46 7.9 71 71 N 15 24 29.91 1013 10 16.0934 0 0
8:35 pm 20:35 Cloudy 55 12.5 46 7.7 73 73 N 7 11 29.97 1015 10 16.0934 0 0
8:55 pm 20:55 Cloudy 53 11.8 46 7.7 76 76 N 6 9 29.97 1015 10 16.0934 0 0
9:15 pm 21:15 Mostly Cloudy 51 10.7 46 7.5 81 81 NNW 9 15 30 1016 10 16.0934 0 0
9:35 pm 21:35 Mostly Cloudy 51 10.4 45 7.4 82 82 NNW 7 11 30 1016 10 16.0934 0 0
9:55 pm 21:55 Cloudy 51 10.5 46 7.7 83 83 NW 5 7 30 1016 10 16.0934 0 0
10:15 pm 22:15 Cloudy 51 10.5 46 7.6 82 82 WNW 6 9 30.03 1017 10 16.0934 0 0
10:35 pm 22:35 Cloudy 51 10.4 46 7.5 82 82 WNW 9 15 30.03 1017 10 16.0934 0 0
10:55 pm 22:55 Mostly Cloudy 51 10.4 45 7.2 81 81 WNW 10 17 30.03 1017 10 16.0934 0 0
11:15 pm 23:15 Mostly Cloudy 51 10.7 46 7.8 82 82 WNW 16 26 30.03 1017 10 16.0934 0 0
11:35 pm 23:35 Cloudy 51 10.7 46 8 84 84 NW 13 20 30.03 1017 10 16.0934 0 0
11:55 pm 23:55 Partly Cloudy 50 10 46 7.6 85 85 NW 10 17 30.06 1018 10 16.0934 0 0

Powered by AerisWeather